Moosic, PA

3:25 AM EDT on July 29, 2016 (GMT -0400)
Wilkes-Barre-Scranton International

Weather History for KAVP - October, 2012

Change the Weather History Date:

Sunday, October 14, 2012

  Actual Average Record
Temperature  
Mean Temperature 59 °F 51 °F  
Max Temperature 70 °F 61 °F 84 °F (1954)
Min Temperature 47 °F 41 °F 29 °F (1991)
Degree Days  
Heating Degree Days 6 14  
Month to date heating degree days 159 161  
Since 1 July heating degree days 276 323  
Cooling Degree Days 0 0  
Month to date cooling degree days 3 0  
Year to date cooling degree days 864 576  
Growing Degree Days 8 (Base 50)    
Moisture  
Dew Point 44 °F    
Average Humidity 58    
Maximum Humidity 68    
Minimum Humidity 47    
Precipitation  
Precipitation 0.00 in 0.11 in 1.31 in (2011)
Month to date precipitation 1.06 1.62  
Year to date precipitation 28.41 30.72  
Sea Level Pressure  
Sea Level Pressure 30.04 in    
Wind  
Wind Speed 7 mph (SSW)    
Max Wind Speed 16 mph    
Max Gust Speed 29 mph    
Visibility 10 miles    
Events      
T = Trace of Precipitation, MM = Missing Value Source: NWS Daily Summary

Daily Weather History Graph

Daily Weather History Graph

Search for Another Location

Airport or City:

Trip Planner

Search our weather history database for the weather conditions in past years. The results will help you decide how hot, cold, wet, or windy it might be!

Date:

Astronomy

Oct. 14, 2012 Rise Set
Actual Time 7:14 AM EDT 6:22 PM EDT
Civil Twilight 6:46 AM EDT 6:50 PM EDT
Nautical Twilight 6:14 AM EDT 7:22 PM EDT
Astronomical Twilight 5:42 AM EDT 7:54 PM EDT
Moon 6:10 AM EDT (10/14) 5:41 PM EDT (10/14)
Length of Visible Light 12h 04m
Length of Day
11h 08m
Waning Crescent, 1% of the Moon is Illuminated
Oct 14
Waning Crescent
Oct 15
New
Oct 21
First Quarter
Oct 29
Full
Nov 6
Last Quarter

Hourly Weather History & Observations

Time (EDT) Temp. Dew Point Humidity Pressure Visibility Wind Dir Wind Speed Gust Speed Precip Events Conditions
1:54 AM 48.0 °F 30.0 °F 50% 30.19 in 10.0 mi SSW 10.4 mph - N/A   Mostly Cloudy
2:54 AM 48.0 °F 32.0 °F 54% 30.16 in 10.0 mi SSW 9.2 mph 17.3 mph N/A   Overcast
3:54 AM 50.0 °F 34.0 °F 54% 30.14 in 10.0 mi SSW 12.7 mph 20.7 mph N/A   Overcast
4:54 AM 50.0 °F 36.0 °F 59% 30.14 in 10.0 mi SSW 6.9 mph - N/A   Overcast
5:54 AM 51.1 °F 39.0 °F 63% 30.14 in 10.0 mi SSW 5.8 mph - N/A   Overcast
6:54 AM 51.1 °F 39.9 °F 66% 30.13 in 10.0 mi SSW 3.5 mph - N/A   Overcast
7:54 AM 51.1 °F 39.9 °F 66% 30.14 in 10.0 mi Variable 3.5 mph - N/A   Overcast
8:54 AM 52.0 °F 41.0 °F 66% 30.14 in 10.0 mi Calm Calm - N/A   Overcast
9:54 AM 55.0 °F 43.0 °F 64% 30.13 in 10.0 mi West 4.6 mph - N/A   Overcast
10:54 AM 55.9 °F 44.1 °F 64% 30.12 in 10.0 mi SSW 5.8 mph - N/A   Overcast
11:54 AM 59.0 °F 45.0 °F 60% 30.10 in 10.0 mi SW 6.9 mph - N/A   Overcast
12:54 PM 63.0 °F 46.0 °F 54% 30.07 in 10.0 mi WNW 4.6 mph - N/A   Mostly Cloudy
1:54 PM 69.1 °F 48.9 °F 49% 30.02 in 10.0 mi Variable 5.8 mph - N/A   Clear
2:54 PM 68.0 °F 48.0 °F 49% 30.00 in 10.0 mi South 9.2 mph 18.4 mph N/A   Clear
3:54 PM 69.1 °F 48.9 °F 49% 29.98 in 10.0 mi Variable 6.9 mph 18.4 mph N/A   Clear
4:54 PM 66.9 °F 48.0 °F 51% 29.96 in 10.0 mi South 8.1 mph 20.7 mph N/A   Clear
5:54 PM 64.0 °F 48.0 °F 56% 29.96 in 10.0 mi SW 9.2 mph - N/A   Clear
6:54 PM 62.1 °F 48.9 °F 62% 29.94 in 10.0 mi Calm Calm - N/A   Clear
7:54 PM 62.1 °F 50.0 °F 65% 29.94 in 10.0 mi Variable 4.6 mph - N/A   Clear
8:54 PM 61.0 °F 48.9 °F 64% 29.94 in 10.0 mi WSW 5.8 mph - N/A   Clear
9:54 PM 61.0 °F 48.0 °F 62% 29.92 in 10.0 mi South 6.9 mph - N/A   Clear
10:54 PM 60.1 °F 48.0 °F 64% 29.90 in 10.0 mi SW 6.9 mph - N/A   Clear
11:54 PM 61.0 °F 48.9 °F 64% 29.86 in 10.0 mi South 11.5 mph 21.9 mph N/A   Clear